Torna al catalogo

STARLINK-32533

AttivoComunicazioniVLEO
NORAD 61706·PAYLOAD·🇺🇸 United States

Lanciato Oct 30, 2024 da Vandenberg Space Force Base

Loading…

Prossimi Passaggi (prossime 24 ore)

TLE

AggiornatoSource: CelesTrak SupGP

Epoca: Sep 14, 2026, 13:53 UTC

1 61706C 24195V   26257.57895833 -.00068119  00000+0 -20135-2 0  2577
2 61706  53.1592 353.3706 0001247  85.3683  12.9350 15.34410328    13

Traccia STARLINK-32533 in tempo reale con AllMySat

Download on the App Store